Powrót do katalogu

STARLINK-4453

AktywnyŁącznośćSSO
NORAD 53497·PAYLOAD·🇺🇸 United States

Wystrzelony Aug 12, 2022 z Vandenberg Space Force Base

Loading…

Następne Przeloty (najbliższe 24 godziny)

TLE

ŚwieżeSource: CelesTrak SupGP

Epoka: Sep 15, 2026, 02:12 UTC

1 53497C 22099AJ  26258.09215278  .00739230  00000+0  39546-1 0  2586
2 53497  97.2855  12.1643 0001603  87.2468  60.1288 15.14768469    15

Śledź STARLINK-4453 w czasie rzeczywistym z AllMySat

Download on the App Store